Location: ???????
(55.4362°N, 38.1183°E)
Time: 12:44:51
(UTC+00:00)

Cosmos 2219 Rocket - Pass Details

Date: 26 October 2021
Orbit: 826 x 848 km, 71.0° (Epoch: 01 December)

Event Time Altitude Azimuth Distance (km) Brightness Sun altitude
Rises 17:41:40 0° 219° (SW) 3,362 5.5 -31.2°
Reaches altitude 10° 17:44:06 10° 221° (SW) 2,434 4.7 -31.5°
Enters shadow 17:46:34 27° 226° (SW) 1,542 3.6 -31.8°
